Weather History for Great Bend, KS

Change the Weather History Date:

Wednesday, March 12, 2014

  Actual Average Record
Temperature  
Mean Temperature 42 °F -  
Max Temperature 57 °F 58 °F 84 °F (1989)
Min Temperature 28 °F 33 °F 4 °F (1950)
Degree Days  
Heating Degree Days 22    
Moisture  
Dew Point 22 °F    
Average Humidity 53    
Maximum Humidity 80    
Minimum Humidity 23    
Precipitation  
Precipitation 0.00 in - - ()
Sea Level Pressure  
Sea Level Pressure 30.22 in    
Wind  
Wind Speed 12 mph (NW)    
Max Wind Speed 21 mph    
Max Gust Speed 28 mph    
Visibility 10 miles    
Events      
Averages and records for this station are not official NWS values.
T = Trace of Precipitation, MM = Missing Value Source: NWS Daily Summary

Daily Weather History Graph

Daily Weather History Graph

Search for Another Location

Airport:

Trip Planner

Search our weather history database for the weather conditions in past years. The results will help you decide how hot, cold, wet, or windy it might be!

Date:

Astronomy

Mar. 12, 2014 Rise Set
Actual Time 7:51 AM CDT 7:39 PM CDT
Civil Twilight 7:24 AM CDT 8:06 PM CDT
Nautical Twilight 6:54 AM CDT 8:36 PM CDT
Astronomical Twilight 6:23 AM CDT 9:07 PM CDT
Moon 4:13 PM CDT (3/12) 5:21 AM CDT (3/12)
Length of Visible Light 12h 41m
Length of Day
11h 48m
Waxing Gibbous, 85% of the Moon is Illuminated
Mar 12
Waxing Gibbous
Mar 16
Full
Mar 23
Last Quarter
Mar 30
New
Apr 7
First Quarter

Hourly Weather History & Observations

Time (CDT) Temp. Windchill Dew Point Humidity Pressure Visibility Wind Dir Wind Speed Gust Speed Precip Events Conditions
12:15 AM 35.6 °F 26.2 °F 28.4 °F 75% 30.18 in 10.0 mi NNW 15.0 mph - N/A   Mostly Cloudy
12:35 AM 35.6 °F 26.6 °F 28.4 °F 75% 30.18 in 10.0 mi North 13.8 mph - N/A   Partly Cloudy
12:55 AM 35.6 °F 28.0 °F 26.6 °F 70% 30.18 in 10.0 mi NNW 10.4 mph - N/A   Clear
1:15 AM 33.8 °F 25.8 °F 26.6 °F 75% 30.18 in 10.0 mi NNW 10.4 mph - N/A   Clear
1:35 AM 33.8 °F 25.3 °F 26.6 °F 75% 30.19 in 10.0 mi NNW 11.5 mph - N/A   Clear
1:55 AM 33.8 °F 25.8 °F 26.6 °F 75% 30.19 in 10.0 mi NW 10.4 mph - N/A   Clear
2:15 AM 33.8 °F 25.8 °F 26.6 °F 75% 30.20 in 10.0 mi NW 10.4 mph - N/A   Clear
2:35 AM 33.8 °F 25.3 °F 26.6 °F 75% 30.21 in 10.0 mi NNW 11.5 mph - N/A   Clear
2:55 AM 33.8 °F 27.0 °F 26.6 °F 75% 30.21 in 10.0 mi North 8.1 mph - N/A   Clear
3:15 AM 32.0 °F 23.6 °F 26.6 °F 80% 30.21 in 10.0 mi NNW 10.4 mph - N/A   Clear
3:35 AM 32.0 °F 23.0 °F 24.8 °F 75% 30.21 in 10.0 mi NW 11.5 mph - N/A   Clear
3:55 AM 32.0 °F 23.0 °F 24.8 °F 75% 30.21 in 10.0 mi NNW 11.5 mph - N/A   Clear
4:15 AM 32.0 °F 21.6 °F 24.8 °F 75% 30.21 in 10.0 mi NNW 15.0 mph - N/A   Clear
4:35 AM 32.0 °F 22.5 °F 26.6 °F 80% 30.21 in 10.0 mi NNW 12.7 mph - N/A   Clear
4:55 AM 32.0 °F 22.5 °F 24.8 °F 75% 30.22 in 10.0 mi NNW 12.7 mph - N/A   Clear
5:15 AM 32.0 °F 24.2 °F 24.8 °F 75% 30.22 in 10.0 mi NNW 9.2 mph - N/A   Clear
5:35 AM 30.2 °F 21.9 °F 24.8 °F 80% 30.23 in 10.0 mi NW 9.2 mph - N/A   Clear
5:55 AM 30.2 °F 21.3 °F 24.8 °F 80% 30.24 in 10.0 mi NW 10.4 mph - N/A   Clear
6:15 AM 28.4 °F 19.7 °F 23.0 °F 80% 30.25 in 10.0 mi NW 9.2 mph - N/A   Clear
6:35 AM 28.4 °F 21.2 °F 23.0 °F 80% 30.26 in 10.0 mi NW 6.9 mph - N/A   Clear
6:55 AM 28.4 °F 19.7 °F 21.2 °F 74% 30.26 in 10.0 mi NW 9.2 mph - N/A   Clear
7:15 AM 28.4 °F 19.7 °F 21.2 °F 74% 30.27 in 10.0 mi NW 9.2 mph - N/A   Clear
7:35 AM 28.4 °F 19.7 °F 21.2 °F 74% 30.27 in 10.0 mi NW 9.2 mph - N/A   Clear
7:55 AM 28.4 °F 19.7 °F 21.2 °F 74% 30.28 in 10.0 mi NW 9.2 mph - N/A   Clear
8:15 AM 28.4 °F 19.7 °F 21.2 °F 74% 30.28 in 10.0 mi WNW 9.2 mph - N/A   Clear
8:35 AM 28.4 °F 19.1 °F 23.0 °F 80% 30.29 in 10.0 mi WNW 10.4 mph - N/A   Clear
8:55 AM 30.2 °F 20.8 °F 24.8 °F 80% 30.29 in 10.0 mi WNW 11.5 mph - N/A   Clear
9:15 AM 33.8 °F 24.8 °F 26.6 °F 75% 30.29 in 10.0 mi WNW 12.7 mph 18.4 mph N/A   Clear
9:35 AM 35.6 °F 27.1 °F 26.6 °F 70% 30.30 in 10.0 mi NW 12.7 mph 18.4 mph N/A   Clear
9:55 AM 37.4 °F 28.5 °F 26.6 °F 65% 30.30 in 10.0 mi NW 15.0 mph 18.4 mph N/A   Clear
10:15 AM 39.2 °F 30.8 °F 26.6 °F 61% 30.30 in 10.0 mi NW 15.0 mph 20.7 mph N/A   Clear
10:35 AM 42.8 °F 35.1 °F 26.6 °F 53% 30.30 in 10.0 mi NW 16.1 mph - N/A   Clear
10:55 AM 44.6 °F 37.8 °F 26.6 °F 49% 30.30 in 10.0 mi NNW 15.0 mph 21.9 mph N/A   Clear
11:15 AM 44.6 °F 37.8 °F 26.6 °F 49% 30.30 in 10.0 mi NW 15.0 mph 23.0 mph N/A   Clear
11:35 AM 46.4 °F 39.8 °F 28.4 °F 50% 30.30 in 10.0 mi NNW 16.1 mph 20.7 mph N/A   Clear
11:55 AM 48.2 °F - 28.4 °F 46% 30.29 in 10.0 mi NNW 17.3 mph 21.9 mph N/A   Clear
12:15 PM 48.2 °F - 26.6 °F 43% 30.29 in 10.0 mi NNW 15.0 mph 24.2 mph N/A   Clear
12:35 PM 51.8 °F - 24.8 °F 35% 30.28 in 10.0 mi NNW 17.3 mph 24.2 mph N/A   Clear
12:55 PM 51.8 °F - 21.2 °F 30% 30.27 in 10.0 mi NNW 18.4 mph 26.5 mph N/A   Clear
1:15 PM 53.6 °F - 19.4 °F 26% 30.26 in 10.0 mi NNW 16.1 mph 27.6 mph N/A   Clear
1:35 PM 53.6 °F - 19.4 °F 26% 30.26 in 10.0 mi North 19.6 mph 26.5 mph N/A   Clear
1:55 PM 53.6 °F - 19.4 °F 26% 30.25 in 10.0 mi NNW 17.3 mph 26.5 mph N/A   Partly Cloudy
2:15 PM 55.4 °F - 19.4 °F 25% 30.24 in 10.0 mi NNW 20.7 mph 24.2 mph N/A   Clear
2:35 PM 55.4 °F - 19.4 °F 25% 30.23 in 10.0 mi NW 17.3 mph 24.2 mph N/A   Clear
2:55 PM 55.4 °F - 21.2 °F 26% 30.22 in 10.0 mi WNW 13.8 mph 23.0 mph N/A   Clear
3:15 PM 55.4 °F - 19.4 °F 25% 30.21 in 10.0 mi NNW 17.3 mph 26.5 mph N/A   Clear
3:35 PM 55.4 °F - 19.4 °F 25% 30.20 in 10.0 mi NW 17.3 mph 25.3 mph N/A   Clear
3:55 PM 55.4 °F - 19.4 °F 25% 30.20 in 10.0 mi NNW 15.0 mph 24.2 mph N/A   Clear
4:15 PM 57.2 °F - 19.4 °F 23% 30.19 in 10.0 mi NW 11.5 mph 18.4 mph N/A   Clear
4:35 PM 55.4 °F - 19.4 °F 25% 30.19 in 10.0 mi NW 12.7 mph - N/A   Clear
4:55 PM 57.2 °F - 19.4 °F 23% 30.18 in 10.0 mi NNW 16.1 mph 21.9 mph N/A   Clear
5:15 PM 55.4 °F - 19.4 °F 25% 30.18 in 10.0 mi NNW 15.0 mph 21.9 mph N/A   Clear
5:35 PM 55.4 °F - 19.4 °F 25% 30.18 in 10.0 mi WNW 13.8 mph 21.9 mph N/A   Clear
5:55 PM 55.4 °F - 19.4 °F 25% 30.17 in 10.0 mi NNW 13.8 mph 23.0 mph N/A   Clear
6:15 PM 55.4 °F - 19.4 °F 25% 30.17 in 10.0 mi NW 13.8 mph 18.4 mph N/A   Clear
6:35 PM 55.4 °F - 19.4 °F 25% 30.17 in 10.0 mi NW 11.5 mph - N/A   Clear
6:55 PM 53.6 °F - 19.4 °F 26% 30.16 in 10.0 mi NW 8.1 mph 16.1 mph N/A   Clear
7:15 PM 53.6 °F - 19.4 °F 26% 30.16 in 10.0 mi NW 6.9 mph - N/A   Clear
7:35 PM 48.2 °F - 19.4 °F 32% 30.17 in 10.0 mi WNW 6.9 mph - N/A   Clear
7:55 PM 44.6 °F 40.7 °F 19.4 °F 37% 30.16 in 10.0 mi WNW 6.9 mph - N/A   Clear
8:15 PM 42.8 °F 39.3 °F 19.4 °F 39% 30.17 in 10.0 mi WNW 5.8 mph - N/A   Clear
8:35 PM 41.0 °F 36.4 °F 19.4 °F 42% 30.17 in 10.0 mi West 6.9 mph - N/A   Clear
8:55 PM 41.0 °F 38.0 °F 19.4 °F 42% 30.18 in 10.0 mi West 4.6 mph - N/A   Clear
9:15 PM 37.4 °F 33.8 °F 17.6 °F 45% 30.18 in 10.0 mi West 4.6 mph - N/A   Clear
9:35 PM 33.8 °F 28.6 °F 19.4 °F 56% 30.17 in 10.0 mi WSW 5.8 mph - N/A   Clear
9:55 PM 35.6 °F 29.2 °F 19.4 °F 52% 30.17 in 10.0 mi WSW 8.1 mph - N/A   Clear
10:15 PM 35.6 °F 28.6 °F 19.4 °F 52% 30.16 in 10.0 mi SW 9.2 mph - N/A   Clear
10:35 PM 35.6 °F 27.5 °F 19.4 °F 52% 30.16 in 10.0 mi SW 11.5 mph - N/A   Clear
10:55 PM 35.6 °F 28.6 °F 19.4 °F 52% 30.16 in 10.0 mi SW 9.2 mph - N/A   Clear
11:15 PM 32.0 °F 25.6 °F 17.6 °F 55% 30.16 in 10.0 mi WSW 6.9 mph - N/A   Clear
11:35 PM 30.2 °F 24.3 °F 17.6 °F 60% 30.16 in 10.0 mi WSW 5.8 mph - N/A   Clear
11:55 PM 30.2 °F 23.4 °F 17.6 °F 60% 30.16 in 10.0 mi WSW 6.9 mph - N/A   Clear